DW5923 Weather Reports


Display with metric or nautical units.
time (UTC)temp
F
wind
direction
speed
MPH
gust
MPH
rain 1hr
in
rain 24hr
in
rain mn
in
humidity
%
barometer
mb
20260506230044 53 331 6.0 19.0 0.00 1.05 0.00 82 1010.4
20260506224534 53 295 9.0 23.0 0.00 1.21 0.00 83 1010.4
20260506223040 53 314 9.0 17.0 0.00 1.21 0.00 83 1010.5
20260506221526 53 292 8.0 17.0 0.00 1.21 0.00 83 1010.4
20260506220025 53 319 7.0 17.0 0.00 1.21 0.00 83 1010.4
20260506214536 53 327 6.0 11.0 0.00 1.30 1.21 83 1010.2
20260506213023 53 290 5.0 10.0 0.00 1.30 1.21 84 1010.2
20260506211521 53 305 6.0 14.0 0.00 1.30 1.21 85 1010.1
20260506210026 53 303 9.0 15.0 0.00 1.30 1.21 84 1010.1
20260506204520 53 276 3.0 12.0 0.00 1.33 1.21 82 1010.1
20260506203020 53 283 7.0 12.0 0.00 1.33 1.21 81 1009.9
20260506201518 54 327 4.0 14.0 0.00 1.33 1.21 79 1009.8
20260506200018 53 269 6.0 13.0 0.00 1.33 1.21 81 1009.5
20260506194516 52 292 6.0 14.0 0.00 1.33 1.21 86 1009.2
20260506193015 52 291 6.0 16.0 0.00 1.33 1.21 85 1009.9
20260506191515 55 46 8.0 19.0 0.00 1.33 1.21 81 1010.2
20260506190015 54 285 10.0 17.0 0.00 1.33 1.21 82 1009.8
20260506184522 54 334 7.0 14.0 0.00 1.33 1.21 83 1008.7
20260506183021 54 337 2.0 10.0 0.00 1.33 1.21 82 1008.3
20260506181514 54 297 4.0 13.0 0.00 1.33 1.21 82 1008.0
20260506180010 54 300 8.0 13.0 0.00 1.33 1.21 83 1007.8
20260506174509 54 308 4.0 16.0 0.00 1.33 1.21 84 1007.9
20260506173008 54 340 4.0 11.0 0.00 1.33 1.21 84 1007.8
20260506171508 55 302 7.0 14.0 0.00 1.33 1.21 83 1007.6
20260506170008 54 9 5.0 14.0 0.01 1.33 1.21 83 1007.5
20260506164509 54 342 10.0 18.0 0.02 1.33 1.21 83 1007.1
20260506163008 54 271 10.0 21.0 0.07 1.33 1.21 83 1006.7
20260506161505 53 291 9.0 19.0 0.16 1.33 1.21 86 1006.3
20260506160009 53 305 6.0 15.0 0.39 1.32 1.20 88 1006.5
20260506154505 52 275 7.0 15.0 0.49 1.31 1.19 88 1006.7
20260506153010 52 279 5.0 10.0 0.56 1.26 1.13 88 1007.4
20260506151503 52 337 10.0 21.0 0.50 1.17 1.05 87 1006.9
20260506144559 55 342 12.0 22.0 0.18 0.83 0.70 86 1005.1
20260506143053 56 315 6.0 14.0 0.06 0.71 0.57 86 1006.5
20260506141552 58 327 6.0 11.0 0.03 0.68 0.55 85 1006.2
20260506140052 61 45 4.0 13.0 0.01 0.66 0.53 79 1006.6
20260506134549 61 224 6.0 12.0 0.00 0.66 0.52 80 1006.3
20260506133048 61 130 3.0 16.0 0.01 0.66 0.52 81 1006.7
20260506131552 60 236 3.0 11.0 0.04 0.66 0.52 82 1006.8
20260506130045 60 231 8.0 13.0 0.05 0.66 0.52 82 1006.9
20260506124544 60 209 6.0 15.0 0.06 0.66 0.52 83 1007.0
20260506123043 58 207 7.0 17.0 0.05 0.65 0.51 84 1007.3
20260506121543 60 234 7.0 18.0 0.02 0.62 0.48 80 1007.5
20260506120043 60 168 11.0 21.0 0.01 0.61 0.47 77 1007.1
20260506114541 60 227 11.0 18.0 0.00 0.61 0.46 79 1006.8
20260506113042 60 233 6.0 14.0 0.00 0.61 0.46 78 1006.8
20260506111536 60 209 8.0 14.0 0.00 0.61 0.46 78 1007.0
20260506110035 60 218 9.0 14.0 0.00 0.61 0.46 80 1007.2
20260506104535 60 211 7.0 16.0 0.00 0.61 0.46 82 1007.4
20260506103029 58 40 1.0 7.0 0.00 0.61 0.46 87 1007.5
20260506101528 57 124 2.0 8.0 0.02 0.61 0.46 87 1007.7
20260506100027 56 333 2.0 5.0 0.07 0.61 0.46 88 1007.9
20260506094527 56 256 1.0 4.0 0.13 0.61 0.46 88 1008.0
20260506093025 55 75 3.0 8.0 0.16 0.61 0.46 87 1007.8
20260506091525 55 181 2.0 11.0 0.14 0.59 0.44 87 1007.4
20260506090026 56 226 2.0 15.0 0.09 0.54 0.39 87 1007.5
20260506084523 56 220 7.0 14.0 0.03 0.53 0.33 85 1007.4
20260506083023 57 217 7.0 13.0 0.01 0.50 0.30 85 1007.0
20260506081521 57 205 8.0 14.0 0.01 0.50 0.30 86 1007.1
20260506073018 56 202 7.0 17.0 0.01 0.63 0.28 86 1007.5
20260506071514 56 206 7.0 16.0 0.01 0.63 0.28 86 1007.8
20260506061509 56 227 4.0 8.0 0.02 0.63 0.28 85 1007.7
20260506050106 56 232 7.0 15.0 0.04 0.60 0.25 88 1008.3
20260506044556 56 214 7.0 14.0 0.04 0.60 0.25 88 1008.2
20260506043057 56 200 7.0 12.0 0.02 0.57 0.23 89 1008.4
20260506041553 56 161 4.0 10.0 0.00 0.56 0.21 89 1008.4
20260506040051 56 179 5.0 14.0 0.00 0.56 0.21 90 1008.4
20260506034602 55 340 1.0 3.0 0.00 0.56 0.21 90 1008.4
20260506033048 55 315 0.0 2.0 0.00 0.56 0.21 90 1008.4
20260506031547 55 315 0.0 2.0 0.00 0.56 0.21 90 1008.7
20260506030046 55 315 0.0 1.0 0.00 0.56 0.21 90 1008.9
20260506024600 55 315 0.0 1.0 0.00 0.56 0.21 90 1009.0
20260506023041 55 315 0.0 3.0 0.00 0.56 0.21 89 1009.4
20260506021540 55 307 0.0 4.0 0.00 0.56 0.21 89 1009.7
20260506020039 56 187 1.0 4.0 0.01 0.56 0.21 90 1009.6
20260506014538 55 169 1.0 7.0 0.01 0.56 0.21 90 1009.6
20260506013051 55 193 0.0 4.0 0.01 0.56 0.21 90 1009.6
20260506011535 55 132 0.0 1.0 0.01 0.56 0.21 90 1009.7
20260506010033 55 131 0.0 4.0 0.00 0.55 0.20 90 1009.9
20260506004532 55 163 2.0 7.0 0.00 0.55 0.20 90 1010.3
20260506003034 55 179 0.0 1.0 0.00 0.55 0.20 90 1010.4
20260506001528 55 107 0.0 1.0 0.00 0.55 0.20 90 1010.4
20260506000026 55 107 0.0 0.0 0.04 0.55 0.20 90 1010.6
20260505234533 55 107 0.0 1.0 0.10 0.55 0.20 90 1010.8
20260505233023 55 92 0.0 2.0 0.14 0.55 0.20 90 1010.7
20260505231523 55 92 1.0 3.0 0.16 0.55 0.20 90 1010.9